map of YBB home
YBB - Airport
Location
City:  Kugaaruk, Kitikmeot, Nunavut, Canada
Near (Alt.):Pelly Bay
Name:Kugaaruk Airport
ICAO:CYBB
IATA:YBB

Details
Type:Airport (Airfield)
Use:Public/Civil
Latitude:6832'09"N (68.535833)
Longitude:8948'19"W (-89.805277)
Elevation:51 ft (16 m)
Variation:17.07W (WMM2015 magnetic declination)
0.38 annual change
Runways:1
Longest:5000 ft (1524 m)

Time
Time Zone:UTC-6 (DST-5)
Local Time:

Weather
METAR:CYBB 242300Z 23010KT 1SM IC SKC M27/M30 A3008 RMK IC2 -25.9/-31.9/TR/30/SNW CVR TRACE LOOSE/ LST STFD OBS SLP189
TAF:CYBB 241838Z 2419/2423 24015KT P6SM SKC
RMK NXT FCST WILL BE ISSUED AT 251545Z

Related Locations
Nearby:
Farthest:YWKS: 11859 mi / 19085 km
Wilkins Runway (Casey), Upper Peterson Glacier, AQ

Find:

   beyond  
but within

Other Information
Maps:
NOTAMs:
Links:
Sources:

  
flag of Canada
flag of Nunavut
  

Airport Diagram

Airport diagram for YBB

Airport diagram PDF

Sectional Chart

Flight Planning
at skyvector.com

Satellite Image

Google Maps Satellite view

 

Copyright © 2004-2017 Karl L. Swartz. All rights reserved.
The Great Circle Mapper name and logo are trademarks of the Great Circle Mapper.
All other trademarks mentioned herein belong to their respective owners.
Please see credits for attibutions and further copyright information.

  Follow gcmap on Facebook Follow gcmap on Twitter Follow gcmap on Google+ GCmap on LinkedIn

hCard Microformat

Geo Microformat